User: anonymous   Login
Location: Unspecified
(0.0000°N, 0.0000°E)
Time: 10:18:49
(UTC+00:00)
Language:

Cubesat XI-IV - Orbit

View from above orbital plane
View from above orbital plane
View from above satellite
View from above satellite

Ground track
Ground track

The orbit data is extracted from the following two-line orbital elements,

1 27848U 03031J   17294.96955448 +.00000055 +00000-0 +45077-4 0  9996
2 27848 098.6994 302.4461 0009568 357.2842 002.8282 14.21679048742181
Epoch (UTC): 21 October 2017 23:16:09
Eccentricity: 0.0009568
inclination: 98.6994°
perigee height: 813 km
apogee height: 826 km
right ascension of ascending node: 302.4461°
argument of perigee: 357.2842°
revolutions per day: 14.21679048
mean anomaly at epoch: 2.8282°
orbit number at epoch: 74218

The dashed part of the orbit path shows where the satellite is in the earth's shadow,  

DLR